一网星座-0451星 (ONEWEB-0451 )

导读

ONEWEB-0451是英国OneWeb星座的第451颗低轨互联网通信卫星,由英国主导开发,于协调世界时2022年2月10日8时成功发射入轨。作为OneWeb全球卫星互联网组网的重要组成部分,它运行于近地轨道,旨在为全球提供高速低时延的宽带网络接入服务,助力偏远地区覆盖与全球互联互通建设,是OneWeb大规模星座部署进程中的标志性卫星之一。

Basic Information
目录编号:
51643
目录名称:
ONEWEB-0451
国际标识:
2022-012X
轨道中心:
EARTH
卫星名称:
一网星座-0451星
卫星全名:
一网星座-0451星 (ONEWEB-0451 )
卫星状态:
在轨 (已飞行1585 天)
发射日期:
2022-02-10 UTC
国别 :
英国 (GB)
星等 :
--
Orbit Information
数据来源 国际轨道数据 AOE轨道数据
星历时间 2026-06-14T13:56:10+0800
7小时前
查看轨道信息
2026-06-09T15:00:00+0800
5天前
查看轨道信息
半长轴 7571.85km 7571.848km
偏心率 0.000201 0.0001329
轨道倾角 87.915° 87.917°
近地点辐角 82.896° 81.541°
升交点赤经 6.428° 7.413°
平近点角 277.240° 184.632°
近地点 1192.191km 1192.704km
远地点 1195.235km 1194.718km
周期 109.286分钟 109.285分钟
每日圈数 13.176492 13.176497
Detailed Information
平衡模式:
三轴稳定
覆盖范围:
全球
运营商:
一网卫星公司
运营商所在国:
英国
制造商(研发单位):
一网卫星公司
制造商所在国:
英国
使用方式:
暂无
Satellite Introduction
OneWeb卫星网络由648颗重约125公斤的微型卫星组成,运行在1200公里的轨道上。 每颗卫星都能够提供至少每秒8千兆位的吞吐量,以使用其高吞吐量的Ku频段有效载荷为家庭和移动平台提供互联网接入。该卫星仍在工作。
2D Orbit Map
3D Orbit Map
Orbit Altitude Analysis Chart
Orbit Inclination Analysis Chart
Orbit Comprehensive Analysis Chart
View Comprehensive Chart